Retour au catalogue

ONEWEB-0428

ActifCommunicationsPO
NORAD 51629·PAYLOAD·🇬🇧 United Kingdom

Lancé Feb 10, 2022 depuis Guiana Space Centre

Loading…

Prochains Passages (prochaines 24 heures)

TLE

FraisSource: CelesTrak SupGP

Époque: Sep 14, 2026, 23:37 UTC

1 51629C 22012H   26257.98454120 -.00001886  00000+0 -54110-2 0  2579
2 51629  87.8890  18.3923 0001741 102.4654   9.6700 13.10368574    17

Suivez ONEWEB-0428 en temps réel avec AllMySat

Download on the App Store